Project,Study,Ord_Occ,Event_Num,Cast_ID,Date_Time_UTC,Date_Time_PST,Lat_Dec,Lon_Dec,Sta_ID,Line,Sta,Depth,Pressure,PrQ,Temp1,Temp1Q,Temp2,Temp2Q,TempAve,Salt1,Salt1Q,Salt1_Corr,Salt2,Salt2Q,Salt2_Corr,SaltAve_Corr,Ox1,Ox1Q,Ox1_CruiseCorr,Ox1_StaCorr,Ox2,Ox2Q,Ox2_CruiseCorr,Ox2_StaCorr,OxAve_StaCorr,Ox1uM,Ox1uM_CruiseCorr,Ox1uM_StaCorr,Ox2uM,Ox2uM_CruiseCorr,Ox2uM_StaCorr,OxAveuM_StaCorr,FluorV,FluorQ,EstChl_CruiseCorr,EstChl_StaCorr,ISUSV,ISUSQ,EstNO3_CruiseCorr,EstNO3_StaCorr,SigThetaTS1,SigThetaTS1Q,SigThetaTS2,SigThetaTS2Q,BAT,XMiss,TransQ,pH,pHQ,SPAR,SPARQ,PAR,PARQ,PoT1,PoT2,DynHt,SVA,OxSat1,OxSat2,BTL_Depth,BTL_Temp,SaltB,OxB,OxBuM,Chl-a,Phaeo,NO3,NO2,NH4,PO4,SIL
CalCOFI,2007SR,034,35,2007_034d,19-Jul-2020 14:46:09,19-Jul-2020 06:46:09,33.89010,-118.50216,086.7 033.0,086.7,033.0,1.000,1.007,,16.2695,,16.2803,,16.2749,33.5916,,33.5918,33.5923,,33.5939,33.5929,5.8334,,6.0776,5.9570,4.2336,,6.1657,4.2522,5.1046,254.266,264.9402,260.8101,184.532,456.3535,188.4983,224.6542,0.1977,,1.9049,1.7187,-99.0,,-99.0,-99.0,24.6031,,24.6012,,1.1652,74.7286,,8.157,,2.7099E+02,,9.3570E+00,,16.2693,16.2802,0.0008,,104.168,75.615,,,,,,,,,,,,
CalCOFI,2007SR,034,35,2007_034d,19-Jul-2020 14:46:26,19-Jul-2020 06:46:26,33.89010,-118.50216,086.7 033.0,086.7,033.0,2.000,2.014,,16.5321,,16.5335,,16.5328,33.5982,,33.5984,33.5980,,33.5996,33.5990,5.8314,,6.0755,5.9549,4.2390,,6.1786,4.2616,5.1083,254.189,264.8598,260.7298,184.779,456.1652,188.9675,224.8487,0.1999,,1.9310,1.7353,-99.0,,-99.0,-99.0,24.5478,,24.5474,,1.1852,74.3568,,8.163,,2.7136E+02,,7.4720E+00,,16.5318,16.5332,0.0075,,104.669,76.090,2,16.418,33.5955,6.110,266.71,2.419,0.087,0.0,0.00,0.00,0.23,3.93
CalCOFI,2007SR,034,35,2007_034d,19-Jul-2020 14:46:30,19-Jul-2020 06:46:30,33.89010,-118.50216,086.7 033.0,086.7,033.0,3.000,3.022,,16.5417,,16.5392,,16.5405,33.5975,,33.5977,33.5967,,33.5983,33.5980,5.7887,,6.0309,5.9107,4.2469,,6.1974,4.2753,5.0930,252.331,262.9202,258.7934,185.125,451.6208,189.6249,224.2092,0.1838,,1.7405,1.6139,-99.0,,-99.0,-99.0,24.5451,,24.5450,,1.2007,74.0683,,8.169,,2.7175E+02,,6.1203E+00,,16.5412,16.5387,0.0108,,103.923,76.240,,,,,,,,,,,,
CalCOFI,2007SR,034,35,2007_034d,19-Jul-2020 14:46:33,19-Jul-2020 06:46:33,33.89010,-118.50216,086.7 033.0,086.7,033.0,4.000,4.029,,16.3341,,16.3399,,16.3370,33.5845,,33.5847,33.5794,,33.5810,33.5829,5.7894,,6.0316,5.9114,4.2786,,6.2731,4.3304,5.1209,252.352,262.9422,258.8153,186.500,451.6722,192.2370,225.5262,0.2118,,2.0719,1.8250,-99.0,,-99.0,-99.0,24.5829,,24.5777,,1.1933,74.2062,,8.174,,2.7181E+02,,5.0689E+00,,16.3334,16.3393,0.0142,,103.508,76.503,,,,,,,,,,,,
CalCOFI,2007SR,034,35,2007_034d,19-Jul-2020 14:46:35,19-Jul-2020 06:46:35,33.89010,-118.50216,086.7 033.0,086.7,033.0,5.000,5.036,,16.0352,,16.0360,,16.0356,33.5794,,33.5796,33.5796,,33.5812,33.5804,5.7045,,5.9429,5.8234,4.3177,,6.3664,4.3984,5.1109,248.633,259.0599,254.9393,188.191,442.5760,195.4494,225.1944,0.2382,,2.3849,2.0240,-99.0,,-99.0,-99.0,24.6472,,24.6472,,1.1905,74.2590,,8.171,,2.7231E+02,,4.2325E+00,,16.0344,16.0352,0.0175,,101.392,76.745,,,,,,,,,,,,
CalCOFI,2007SR,034,35,2007_034d,19-Jul-2020 14:46:38,19-Jul-2020 06:46:38,33.89010,-118.50216,086.7 033.0,086.7,033.0,6.000,6.043,,15.8230,,15.8257,,15.8244,33.5700,,33.5702,33.5636,,33.5652,33.5677,5.5531,,5.7847,5.6665,4.3690,,6.4889,4.4876,5.0771,242.028,252.1649,248.0554,190.419,426.4211,199.6821,223.8688,0.2405,,2.4121,2.0414,-99.0,,-99.0,-99.0,24.6879,,24.6823,,1.1779,74.4924,,8.164,,2.7231E+02,,3.5363E+00,,15.8220,15.8248,0.0208,,98.287,77.328,6,13.862,33.5506,5.795,252.97,2.743,0.480,0.0,0.00,0.00,0.35,3.49
CalCOFI,2007SR,034,35,2007_034d,19-Jul-2020 14:46:40,19-Jul-2020 06:46:40,33.89010,-118.50216,086.7 033.0,086.7,033.0,7.000,7.050,,14.7584,,14.7637,,14.7611,33.5189,,33.5191,33.5083,,33.5099,33.5145,5.5867,,5.8198,5.7014,4.4609,,6.7083,4.6474,5.1744,243.445,253.6441,249.5322,194.389,429.8869,207.2240,228.3781,0.2073,,2.0186,1.7910,-99.0,,-99.0,-99.0,24.8821,,24.8729,,1.0531,76.8537,,8.153,,2.7231E+02,,3.0350E+00,,14.7574,14.7626,0.0240,,96.783,77.280,,,,,,,,,,,,
CalCOFI,2007SR,034,35,2007_034d,19-Jul-2020 14:46:42,19-Jul-2020 06:46:42,33.89010,-118.50216,086.7 033.0,086.7,033.0,8.000,8.058,,14.2640,,14.2750,,14.2695,33.5240,,33.5242,33.5232,,33.5248,33.5245,5.3940,,5.6185,5.5017,4.5082,,6.8212,4.7297,5.1157,235.023,244.8524,240.7547,196.429,409.2879,211.0994,225.9271,0.2260,,2.2402,1.9320,0.0014,,0.0000,-99.0,24.9916,,24.9887,,1.0507,76.8999,,8.142,,2.7231E+02,,2.6234E+00,,14.2628,14.2738,0.0270,,92.525,77.347,,,,,,,,,,,,
CalCOFI,2007SR,034,35,2007_034d,19-Jul-2020 14:46:44,19-Jul-2020 06:46:44,33.89010,-118.50216,086.7 033.0,086.7,033.0,9.000,9.065,,13.9495,,13.9305,,13.9400,33.5091,,33.5093,33.5084,,33.5100,33.5097,5.1781,,5.3929,5.2780,4.5327,,6.8797,4.7723,5.0252,225.603,235.0189,230.9370,197.481,386.2479,213.0980,222.0175,0.2253,,2.2319,1.9268,0.0030,,0.0000,-99.0,25.0458,,25.0491,,0.9985,77.9105,,8.126,,2.7231E+02,,2.3143E+00,,13.9482,13.9292,0.0300,,88.249,77.218,,,,,,,,,,,,
CalCOFI,2007SR,034,35,2007_034d,19-Jul-2020 14:46:46,19-Jul-2020 06:46:46,33.89010,-118.50216,086.7 033.0,086.7,033.0,10.000,10.072,,13.6248,,13.5970,,13.6109,33.5173,,33.5175,33.5219,,33.5235,33.5205,5.1530,,5.3667,5.2520,4.5467,,6.9131,4.7967,5.0244,224.494,233.8612,229.7812,198.080,383.5355,214.2359,222.0086,0.2440,,2.4537,2.0677,0.0045,,0.0000,-99.0,25.1190,,25.1282,,0.9631,78.6024,,8.104,,2.7231E+02,,2.0578E+00,,13.6234,13.5956,0.0329,,87.247,76.940,,,,,,,,,,,,
CalCOFI,2007SR,034,35,2007_034d,19-Jul-2020 14:46:48,19-Jul-2020 06:46:48,33.89010,-118.50216,086.7 033.0,086.7,033.0,11.000,11.079,,13.5243,,13.5245,,13.5244,33.5264,,33.5266,33.5276,,33.5292,33.5279,5.0123,,5.2197,5.1062,4.5367,,6.8893,4.7793,4.9428,218.358,227.4558,223.3861,197.640,368.5277,213.4000,218.3931,0.2572,,2.6103,2.1673,0.0057,,0.0000,-99.0,25.1465,,25.1474,,0.9645,78.5755,,8.088,,2.7231E+02,,1.8822E+00,,13.5227,13.5230,0.0357,,84.695,76.660,11,13.299,33.5446,,225.56,4.575,1.066,1.10,0.059,1.43,0.66,6.21
CalCOFI,2007SR,034,35,2007_034d,19-Jul-2020 14:46:50,19-Jul-2020 06:46:50,33.89010,-118.50216,086.7 033.0,086.7,033.0,12.000,12.086,,13.4431,,13.4256,,13.4344,33.5264,,33.5266,33.5263,,33.5279,33.5273,4.8426,,5.0423,4.9303,4.5275,,6.8673,4.7633,4.8468,210.962,219.7351,215.6779,197.235,350.4381,212.6306,214.1543,0.2901,,3.0013,2.4153,0.0062,,0.0000,-99.0,25.1630,,25.1665,,0.9725,78.4168,,8.077,,2.7231E+02,,1.7169E+00,,13.4414,13.4240,0.0386,,81.692,76.349,,,,,,,,,,,,
CalCOFI,2007SR,034,35,2007_034d,19-Jul-2020 14:46:52,19-Jul-2020 06:46:52,33.89010,-118.50216,086.7 033.0,086.7,033.0,13.000,13.094,,13.1947,,13.1769,,13.1858,33.5326,,33.5328,33.5353,,33.5369,33.5349,4.7593,,4.9553,4.8440,4.5303,,6.8740,4.7681,4.8061,207.321,215.9343,211.8832,197.344,341.5327,212.8377,212.3605,0.3815,,4.0909,3.1044,0.0062,,0.0000,-99.0,25.2178,,25.2234,,1.0202,77.4876,,8.060,,2.7231E+02,,1.5802E+00,,13.1929,13.1751,0.0413,,79.881,76.011,,,,,,,,,,,,
CalCOFI,2007SR,034,35,2007_034d,19-Jul-2020 14:46:54,19-Jul-2020 06:46:54,33.89010,-118.50216,086.7 033.0,086.7,033.0,14.000,14.101,,13.0974,,13.0926,,13.0950,33.5370,,33.5372,33.5389,,33.5405,33.5389,4.5825,,4.7706,4.6608,4.5138,,6.8346,4.7394,4.7001,199.618,207.8931,203.8550,196.625,322.6923,211.4718,207.6634,0.4613,,5.0464,3.7061,0.0055,,0.0000,-99.0,25.2406,,25.2430,,1.0635,76.6566,,8.047,,2.7231E+02,,1.4625E+00,,13.0955,13.0907,0.0441,,76.763,75.605,,,,,,,,,,,,
CalCOFI,2007SR,034,35,2007_034d,19-Jul-2020 14:46:56,19-Jul-2020 06:46:56,33.89010,-118.50216,086.7 033.0,086.7,033.0,15.000,15.108,,12.8861,,12.8777,,12.8819,33.5394,,33.5396,33.5408,,33.5424,33.5410,4.4711,,4.6542,4.5454,4.5046,,6.8126,4.7234,4.6344,194.754,202.8156,198.7856,196.214,310.7957,210.6910,204.7383,0.6324,,7.1080,4.9961,0.0043,,0.0000,-99.0,25.2844,,25.2871,,1.1794,74.4715,,8.032,,2.7231E+02,,1.3377E+00,,12.8840,12.8757,0.0468,,74.571,75.118,,,,,,,,,,,,
CalCOFI,2007SR,034,35,2007_034d,19-Jul-2020 14:46:59,19-Jul-2020 06:46:59,33.89010,-118.50216,086.7 033.0,086.7,033.0,16.000,16.115,,12.7420,,12.7427,,12.7424,33.5423,,33.5425,33.5441,,33.5457,33.5441,4.2424,,4.4152,4.3084,4.4887,,6.7747,4.6958,4.5021,184.787,192.4110,188.3978,195.516,286.4178,209.3650,198.8814,0.4165,,4.5095,3.3683,0.0025,,0.0000,-99.0,25.3149,,25.3162,,1.0231,77.4320,,8.017,,2.7231E+02,,1.2172E+00,,12.7398,12.7406,0.0495,,70.548,74.645,16,11.653,33.4823,3.694,161.27,1.408,0.407,13.33,0.356,8.86,1.72,15.36
CalCOFI,2007SR,034,35,2007_034d,19-Jul-2020 14:47:01,19-Jul-2020 06:47:01,33.89010,-118.50216,086.7 033.0,086.7,033.0,17.000,17.123,,12.6430,,12.6191,,12.6311,33.5384,,33.5386,33.5365,,33.5381,33.5384,3.7946,,3.9473,3.8444,4.4907,,6.7794,4.6993,4.2719,165.281,172.0487,168.0683,195.597,238.7089,209.5189,188.7936,0.3135,,3.2798,2.5917,0.0006,,0.0000,-99.0,25.3313,,25.3344,,0.9413,79.0325,,7.998,,2.7231E+02,,1.1228E+00,,12.6408,12.6168,0.0522,,62.972,74.483,,,,,,,,,,,,
CalCOFI,2007SR,034,35,2007_034d,19-Jul-2020 14:47:03,19-Jul-2020 06:47:03,33.89010,-118.50216,086.7 033.0,086.7,033.0,18.000,18.130,,12.1946,,12.1254,,12.1600,33.4933,,33.4935,33.4899,,33.4915,33.4925,3.4923,,3.6314,3.5311,4.4962,,6.7926,4.7088,4.1200,152.105,158.2943,154.3361,195.829,206.4823,209.9596,182.1479,0.1509,,1.3516,1.3658,-99.0,,-99.0,-99.0,25.3824,,25.3929,,0.8433,80.9944,,7.960,,2.7231E+02,,1.0443E+00,,12.1923,12.1231,0.0548,,57.402,73.789,,,,,,,,,,,,
CalCOFI,2007SR,034,35,2007_034d,19-Jul-2020 14:47:05,19-Jul-2020 06:47:05,33.89010,-118.50216,086.7 033.0,086.7,033.0,19.000,19.137,,11.8694,,11.8435,,11.8565,33.4953,,33.4955,33.4992,,33.5008,33.4982,3.2797,,3.4093,3.3108,4.4867,,6.7699,4.6923,4.0016,142.837,148.6194,144.6768,195.403,183.8141,209.1503,176.9136,0.1255,,1.0519,1.1743,-99.0,,-99.0,-99.0,25.4455,,25.4533,,0.7884,82.1121,,7.928,,2.7318E+02,,9.8060E-01,,11.8669,11.8411,0.0574,,53.538,73.203,,,,,,,,,,,,
CalCOFI,2007SR,034,35,2007_034d,19-Jul-2020 14:47:07,19-Jul-2020 06:47:07,33.89010,-118.50216,086.7 033.0,086.7,033.0,20.000,20.145,,11.5545,,11.5167,,11.5356,33.4398,,33.4400,33.4343,,33.4359,33.4380,3.1910,,3.3166,3.2189,4.4605,,6.7074,4.6468,3.9329,138.972,144.5848,140.6486,194.261,174.3608,206.9808,173.8147,0.0914,,0.6501,0.9172,-99.0,,-99.0,-99.0,25.4606,,25.4633,,0.7986,81.9029,,7.895,,2.7421E+02,,9.2619E-01,,11.5520,11.5142,0.0599,,51.727,72.246,,,,,,,,,,,,
CalCOFI,2007SR,034,35,2007_034d,19-Jul-2020 14:47:10,19-Jul-2020 06:47:10,33.89010,-118.50216,086.7 033.0,086.7,033.0,21.000,21.152,,11.3071,,11.2874,,11.2973,33.4174,,33.4176,33.4184,,33.4200,33.4188,3.1737,,3.2985,3.2010,4.4142,,6.5968,4.5662,3.8836,138.215,143.7945,139.8597,192.239,172.5093,203.1396,171.4997,0.0786,,0.4994,0.8207,-99.0,,-99.0,-99.0,25.4885,,25.4929,,0.8053,81.7640,,7.866,,2.7422E+02,,8.8239E-01,,11.3045,11.2848,0.0624,,51.170,71.141,21,11.252,33.4450,3.242,141.54,0.324,0.261,17.74,0.447,8.46,2.26,20.13
CalCOFI,2007SR,034,35,2007_034d,19-Jul-2020 14:47:12,19-Jul-2020 06:47:12,33.89010,-118.50216,086.7 033.0,086.7,033.0,22.000,22.159,,11.2585,,11.2450,,11.2518,33.4173,,33.4175,33.4203,,33.4219,33.4197,3.1684,,3.2930,3.1955,4.3504,,6.4445,4.4553,3.8254,137.985,143.5544,139.6200,189.457,171.9468,197.8545,168.7373,0.0775,,0.4865,0.8124,-99.0,,-99.0,-99.0,25.4973,,25.5021,,0.8119,81.6290,,7.847,,2.7325E+02,,8.3370E-01,,11.2558,11.2423,0.0649,,51.032,70.050,,,,,,,,,,,,
CalCOFI,2007SR,034,35,2007_034d,19-Jul-2020 14:47:14,19-Jul-2020 06:47:14,33.89010,-118.50216,086.7 033.0,086.7,033.0,23.000,23.166,,11.2420,,11.2362,,11.2391,33.4223,,33.4225,33.4264,,33.4280,33.4253,3.1692,,3.2938,3.1963,4.2853,,6.2891,4.3421,3.7692,138.016,143.5868,139.6523,186.622,172.0226,192.4688,166.0606,0.0773,,0.4841,0.8109,-99.0,,-99.0,-99.0,25.5042,,25.5084,,0.8126,81.6150,,7.833,,2.7424E+02,,7.9842E-01,,11.2392,11.2334,0.0674,,51.028,68.992,,,,,,,,,,,,
CalCOFI,2007SR,034,35,2007_034d,19-Jul-2020 14:47:16,19-Jul-2020 06:47:16,33.89010,-118.50216,086.7 033.0,086.7,033.0,24.000,24.174,,11.2492,,11.2454,,11.2473,33.4319,,33.4321,33.4347,,33.4363,33.4342,3.1483,,3.2720,3.1746,4.2328,,6.1638,4.2508,3.7127,137.105,142.6358,138.7028,184.336,169.7944,188.1260,163.4144,0.0770,,0.4806,0.8086,-99.0,,-99.0,-99.0,25.5104,,25.5132,,0.8103,81.6630,,7.824,,2.7422E+02,,7.5512E-01,,11.2463,11.2424,0.0699,,50.702,68.164,,,,,,,,,,,,
CalCOFI,2007SR,034,35,2007_034d,19-Jul-2020 14:47:18,19-Jul-2020 06:47:18,33.89010,-118.50216,086.7 033.0,086.7,033.0,25.000,25.181,,11.1845,,11.1792,,11.1819,33.4284,,33.4286,33.4297,,33.4313,33.4300,3.1187,,3.2410,3.1440,4.1826,,6.0439,4.1635,3.6538,135.817,141.2913,137.3604,182.144,166.6441,183.9617,160.6611,0.0691,,0.3877,0.7491,-99.0,,-99.0,-99.0,25.5193,,25.5213,,0.8107,81.6546,,7.815,,2.7422E+02,,7.3216E-01,,11.1814,11.1761,0.0724,,50.156,67.257,,,,,,,,,,,,
CalCOFI,2007SR,034,35,2007_034d,19-Jul-2020 14:47:21,19-Jul-2020 06:47:21,33.89010,-118.50216,086.7 033.0,086.7,033.0,26.000,26.188,,11.2724,,11.2810,,11.2767,33.4624,,33.4626,33.4689,,33.4705,33.4666,3.0839,,3.2047,3.1079,4.1162,,5.8854,4.0480,3.5780,134.300,139.7077,135.7794,179.252,162.9338,178.4677,157.1236,0.0734,,0.4383,0.7815,-99.0,,-99.0,-99.0,25.5299,,25.5334,,0.7918,82.0407,,7.812,,2.7422E+02,,7.0157E-01,,11.2692,11.2778,0.0749,,49.700,66.350,,,,,,,,,,,,
CalCOFI,2007SR,034,35,2007_034d,19-Jul-2020 14:47:23,19-Jul-2020 06:47:23,33.89010,-118.50216,086.7 033.0,086.7,033.0,27.000,27.196,,11.3718,,11.3691,,11.3705,33.4869,,33.4871,33.4885,,33.4901,33.4886,3.0543,,3.1737,3.0772,4.0624,,5.7570,3.9545,3.5159,133.009,138.3600,134.4339,176.908,159.7762,174.0147,154.2243,0.0746,,0.4524,0.7905,-99.0,,-99.0,-99.0,25.5309,,25.5327,,0.7833,82.2161,,7.808,,2.7422E+02,,6.6812E-01,,11.3685,11.3657,0.0773,,49.334,65.613,,,,,,,,,,,,
CalCOFI,2007SR,034,35,2007_034d,19-Jul-2020 14:47:25,19-Jul-2020 06:47:25,33.89010,-118.50216,086.7 033.0,086.7,033.0,28.000,28.203,,11.3669,,11.3643,,11.3656,33.4922,,33.4924,33.4948,,33.4964,33.4944,3.0421,,3.1610,3.0646,4.0300,,5.6796,3.8981,3.4814,132.477,137.8046,133.8794,175.499,158.4750,171.3380,152.6087,0.0693,,0.3901,0.7506,-99.0,,-99.0,-99.0,25.5360,,25.5385,,0.7794,82.2963,,7.807,,2.7422E+02,,6.4248E-01,,11.3635,11.3608,0.0798,,49.133,65.087,,,,,,,,,,,,
CalCOFI,2007SR,034,35,2007_034d,19-Jul-2020 14:47:27,19-Jul-2020 06:47:27,33.89010,-118.50216,086.7 033.0,086.7,033.0,29.000,29.210,,11.3145,,11.3100,,11.3123,33.4947,,33.4949,33.4969,,33.4985,33.4967,3.0420,,3.1609,3.0645,3.9907,,5.5858,3.8298,3.4472,132.474,137.8015,133.8763,173.786,158.4676,168.0838,150.9801,0.0658,,0.3489,0.7242,-99.0,,-99.0,-99.0,25.5475,,25.5500,,0.7753,82.3803,,7.803,,2.7537E+02,,6.0779E-01,,11.3109,11.3064,0.0823,,49.079,64.379,,,,,,,,,,,,
CalCOFI,2007SR,034,35,2007_034d,19-Jul-2020 14:47:30,19-Jul-2020 06:47:30,33.89010,-118.50216,086.7 033.0,086.7,033.0,30.000,30.218,,11.2933,,11.2928,,11.2931,33.5011,,33.5013,33.5033,,33.5049,33.5031,3.0244,,3.1425,3.0463,3.9518,,5.4929,3.7621,3.4042,131.706,136.9998,133.0759,172.088,156.5892,164.8580,148.9670,0.0634,,0.3207,0.7061,-99.0,,-99.0,-99.0,25.5563,,25.5581,,0.7748,82.3914,,7.801,,2.7419E+02,,5.7943E-01,,11.2896,11.2891,0.0847,,48.775,63.730,,,,,,,,,,,,
CalCOFI,2007SR,034,35,2007_034d,19-Jul-2020 14:47:32,19-Jul-2020 06:47:32,33.89010,-118.50216,086.7 033.0,086.7,033.0,31.000,31.225,,11.2735,,11.2718,,11.2727,33.4986,,33.4988,33.5002,,33.5018,33.5003,3.0265,,3.1447,3.0484,3.9261,,5.4316,3.7174,3.3829,131.795,137.0927,133.1686,170.970,156.8069,162.7341,147.9514,0.0629,,0.3148,0.7023,-99.0,,-99.0,-99.0,25.5580,,25.5595,,0.7723,82.4411,,7.799,,2.7460E+02,,5.5340E-01,,11.2697,11.2680,0.0871,,48.787,63.286,31,11.178,33.5148,3.099,135.29,0.230,0.210,19.07,0.400,33.58,2.07,19.59
CalCOFI,2007SR,034,35,2007_034d,19-Jul-2020 14:47:34,19-Jul-2020 06:47:34,33.89010,-118.50216,086.7 033.0,086.7,033.0,32.000,32.232,,11.2370,,11.2367,,11.2369,33.5040,,33.5042,33.5060,,33.5076,33.5059,2.9912,,3.1078,3.0119,3.9020,,5.3740,3.6755,3.3437,130.258,135.4882,131.5668,169.917,153.0476,160.7337,146.1503,0.0620,,0.3042,0.6955,-99.0,,-99.0,-99.0,25.5688,,25.5704,,0.7662,82.5685,,7.799,,2.7610E+02,,5.3470E-01,,11.2330,11.2328,0.0896,,48.183,62.853,,,,,,,,,,,,
CalCOFI,2007SR,034,35,2007_034d,19-Jul-2020 14:47:36,19-Jul-2020 06:47:36,33.89010,-118.50216,086.7 033.0,086.7,033.0,33.000,33.240,,11.1777,,11.1779,,11.1778,33.5118,,33.5120,33.5133,,33.5149,33.5135,2.9869,,3.1033,3.0074,3.8747,,5.3089,3.6281,3.3178,130.065,135.2868,131.3656,168.727,152.5756,158.4730,144.9193,0.0565,,0.2396,0.6541,-99.0,,-99.0,-99.0,25.5856,,25.5867,,0.7680,82.5309,,7.794,,2.7612E+02,,5.1072E-01,,11.1737,11.1739,0.0920,,48.054,62.338,,,,,,,,,,,,
CalCOFI,2007SR,034,35,2007_034d,19-Jul-2020 14:47:39,19-Jul-2020 06:47:39,33.89010,-118.50216,086.7 033.0,086.7,033.0,34.000,34.247,,11.1494,,11.1497,,11.1496,33.5233,,33.5235,33.5251,,33.5267,33.5251,3.0189,,3.1367,3.0406,3.8376,,5.2203,3.5635,3.3021,131.458,136.7409,132.8174,167.108,155.9826,155.3974,144.1074,0.0552,,0.2243,0.6443,-99.0,,-99.0,-99.0,25.5996,,25.6010,,0.7636,82.6207,,7.793,,2.7612E+02,,4.9331E-01,,11.1453,11.1455,0.0944,,48.543,61.708,,,,,,,,,,,,
CalCOFI,2007SR,034,35,2007_034d,19-Jul-2020 14:47:41,19-Jul-2020 06:47:41,33.89010,-118.50216,086.7 033.0,086.7,033.0,35.000,35.254,,11.1951,,11.1945,,11.1948,33.5476,,33.5478,33.5508,,33.5524,33.5501,2.9975,,3.1144,3.0184,3.8130,,5.1616,3.5208,3.2696,130.526,135.7680,131.8461,166.035,153.7031,153.3589,142.6025,0.0574,,0.2502,0.6609,-99.0,,-99.0,-99.0,25.6103,,25.6129,,0.7561,82.7759,,7.794,,2.7612E+02,,4.8019E-01,,11.1908,11.1902,0.0968,,48.253,61.382,,,,,,,,,,,,
CalCOFI,2007SR,034,35,2007_034d,19-Jul-2020 14:47:43,19-Jul-2020 06:47:43,33.89010,-118.50216,086.7 033.0,086.7,033.0,36.000,36.262,,11.1927,,11.1922,,11.1925,33.5704,,33.5706,33.5692,,33.5708,33.5707,2.9687,,3.0843,2.9885,3.7943,,5.1169,3.4882,3.2384,129.269,134.4558,130.5360,165.218,150.6287,151.8069,141.1715,0.0546,,0.2173,0.6397,-99.0,,-99.0,-99.0,25.6286,,25.6277,,0.7518,82.8647,,7.794,,2.7657E+02,,4.7055E-01,,11.1883,11.1878,0.0992,,47.795,61.085,,,,,,,,,,,,
CalCOFI,2007SR,034,35,2007_034d,19-Jul-2020 14:47:45,19-Jul-2020 06:47:45,33.89010,-118.50216,086.7 033.0,086.7,033.0,37.000,37.269,,11.0401,,11.0330,,11.0366,33.5564,,33.5566,33.5574,,33.5590,33.5578,2.9669,,3.0824,2.9867,3.7844,,5.0933,3.4710,3.2289,129.188,134.3713,130.4516,164.783,150.4305,150.9805,140.7161,0.0512,,0.1773,0.6141,-99.0,,-99.0,-99.0,25.6451,,25.6471,,0.7607,82.6806,,7.792,,2.7800E+02,,4.5976E-01,,11.0356,11.0285,0.1016,,47.606,60.714,,,,,,,,,,,,
CalCOFI,2007SR,034,35,2007_034d,19-Jul-2020 14:47:47,19-Jul-2020 06:47:47,33.89010,-118.50216,086.7 033.0,086.7,033.0,38.000,38.276,,10.9883,,10.9917,,10.9900,33.5520,,33.5522,33.5535,,33.5551,33.5537,2.9714,,3.0871,2.9913,3.7630,,5.0422,3.4338,3.2126,129.385,134.5769,130.6569,163.852,150.9124,149.2118,139.9344,0.0496,,0.1585,0.6020,-99.0,,-99.0,-99.0,25.6510,,25.6515,,0.7643,82.6061,,7.790,,2.7614E+02,,4.5043E-01,,10.9837,10.9871,0.1039,,47.625,60.316,,,,,,,,,,,,
CalCOFI,2007SR,034,35,2007_034d,19-Jul-2020 14:47:49,19-Jul-2020 06:47:49,33.89010,-118.50216,086.7 033.0,086.7,033.0,39.000,39.284,,10.9733,,10.9742,,10.9738,33.5538,,33.5540,33.5556,,33.5572,33.5556,2.9684,,3.0840,2.9882,3.7407,,4.9890,3.3950,3.1916,129.252,134.4381,130.5183,162.882,150.5871,147.3691,138.9437,0.0496,,0.1585,0.6020,-99.0,,-99.0,-99.0,25.6550,,25.6562,,0.7642,82.6091,,7.789,,2.7746E+02,,4.3293E-01,,10.9685,10.9695,0.1063,,47.561,59.938,,,,,,,,,,,,
CalCOFI,2007SR,034,35,2007_034d,19-Jul-2020 14:47:52,19-Jul-2020 06:47:52,33.89010,-118.50216,086.7 033.0,086.7,033.0,40.000,40.291,,10.9740,,10.9758,,10.9749,33.5586,,33.5588,33.5600,,33.5616,33.5602,2.9704,,3.0861,2.9903,3.7156,,4.9291,3.3514,3.1709,129.340,134.5299,130.6100,161.786,150.8023,145.2870,137.9485,0.0504,,0.1679,0.6081,-99.0,,-99.0,-99.0,25.6586,,25.6594,,0.7625,82.6441,,7.786,,2.7801E+02,,4.2445E-01,,10.9691,10.9710,0.1086,,47.596,59.539,,,,,,,,,,,,
CalCOFI,2007SR,034,35,2007_034d,19-Jul-2020 14:47:54,19-Jul-2020 06:47:54,33.89010,-118.50216,086.7 033.0,086.7,033.0,41.000,41.298,,10.9841,,10.9838,,10.9840,33.5742,,33.5744,33.5745,,33.5761,33.5753,3.0076,,3.1249,3.0289,3.6934,,4.8761,3.3128,3.1709,130.959,136.2200,132.2973,160.821,154.7622,143.4537,137.8755,0.0493,,0.1550,0.5998,-99.0,,-99.0,-99.0,25.6690,,25.6693,,0.7577,82.7431,,7.787,,2.7802E+02,,4.1027E-01,,10.9791,10.9789,0.1110,,48.207,59.199,41,10.976,33.6411,3.128,136.51,0.157,0.188,19.82,0.355,11.23,1.71,18.84
CalCOFI,2007SR,034,35,2007_034d,19-Jul-2020 14:47:56,19-Jul-2020 06:47:56,33.89010,-118.50216,086.7 033.0,086.7,033.0,42.000,42.306,,10.9947,,10.9983,,10.9965,33.6518,,33.6520,33.6500,,33.6516,33.6518,3.0811,,3.2017,3.1050,3.6694,,4.8188,3.2710,3.1880,134.150,139.5511,135.6231,159.764,162.5669,141.4457,138.5344,0.0508,,0.1726,0.6111,-99.0,,-99.0,-99.0,25.7275,,25.7255,,0.7232,83.4606,,7.793,,2.7802E+02,,4.0841E-01,,10.9896,10.9932,0.1133,,49.420,58.860,,,,,,,,,,,,
CalCOFI,2007SR,034,35,2007_034d,19-Jul-2020 14:47:58,19-Jul-2020 06:47:58,33.89010,-118.50216,086.7 033.0,086.7,033.0,43.000,43.313,,10.9537,,10.9551,,10.9544,33.6709,,33.6711,33.6720,,33.6736,33.6724,3.0827,,3.2034,3.1067,3.6557,,4.7861,3.2472,3.1770,134.219,139.6231,135.6950,159.165,162.7357,140.3078,138.0014,0.0520,,0.1867,0.6201,-99.0,,-99.0,-99.0,25.7498,,25.7503,,0.7167,83.5960,,7.799,,2.7802E+02,,4.0207E-01,,10.9485,10.9499,0.1156,,49.409,58.595,,,,,,,,,,,,
CalCOFI,2007SR,034,35,2007_034d,19-Jul-2020 14:48:00,19-Jul-2020 06:48:00,33.89010,-118.50216,086.7 033.0,086.7,033.0,44.000,44.321,,10.9466,,10.9480,,10.9473,33.6710,,33.6712,33.6725,,33.6741,33.6727,3.0728,,3.1931,3.0964,3.6407,,4.7502,3.2211,3.1588,133.787,139.1721,135.2447,158.511,161.6790,139.0653,137.1550,0.0523,,0.1902,0.6224,-99.0,,-99.0,-99.0,25.7512,,25.7521,,0.7163,83.6040,,7.804,,2.7840E+02,,3.9602E-01,,10.9413,10.9426,0.1178,,49.243,58.346,,,,,,,,,,,,
CalCOFI,2007SR,034,35,2007_034d,19-Jul-2020 14:48:03,19-Jul-2020 06:48:03,33.89010,-118.50216,086.7 033.0,086.7,033.0,45.000,45.328,,10.9282,,10.9300,,10.9291,33.6827,,33.6829,33.6844,,33.6860,33.6845,,,,,3.6269,,4.7173,3.1971,,,,,157.910,156.9977,137.9236,,0.0501,,0.1644,0.6058,-99.0,,-99.0,-99.0,25.7635,,25.7645,,0.7148,83.6345,,7.808,,2.7992E+02,,3.8492E-01,,10.9227,10.9246,0.1201,,,58.107,,,,,,,,,,,,
CalCOFI,2007SR,034,35,2007_034d,19-Jul-2020 14:48:05,19-Jul-2020 06:48:05,33.89010,-118.50216,086.7 033.0,086.7,033.0,46.000,46.335,,10.8954,,10.8983,,10.8969,33.6936,,33.6938,33.6944,,33.6960,33.6949,,,,,3.6153,,4.6896,3.1770,,,,,157.403,157.2423,136.9604,,0.0483,,0.1432,0.5922,-99.0,,-99.0,-99.0,25.7779,,25.7780,,0.7154,83.6226,,7.809,,2.7993E+02,,3.7138E-01,,10.8898,10.8927,0.1223,,,57.886,,,,,,,,,,,,
CalCOFI,2007SR,034,35,2007_034d,19-Jul-2020 14:48:08,19-Jul-2020 06:48:08,33.89010,-118.50216,086.7 033.0,086.7,033.0,47.000,47.343,,10.8608,,10.8630,,10.8619,33.7009,,33.7011,33.7016,,33.7032,33.7022,,,,,3.6034,,4.6612,3.1563,,,,,156.883,155.5130,135.9726,,0.0468,,0.1256,0.5809,-99.0,,-99.0,-99.0,25.7897,,25.7898,,0.7143,83.6453,,7.809,,2.7993E+02,,3.5485E-01,,10.8552,10.8573,0.1245,,,57.654,,,,,,,,,,,,
CalCOFI,2007SR,034,35,2007_034d,19-Jul-2020 14:48:11,19-Jul-2020 06:48:11,33.89010,-118.50216,086.7 033.0,086.7,033.0,48.000,48.350,,10.8311,,10.8336,,10.8324,33.7084,,33.7086,33.7091,,33.7107,33.7097,,,,,3.5916,,4.6330,3.1357,,,,,156.368,147.7425,134.9942,,0.0445,,0.0986,0.5636,-99.0,,-99.0,-99.0,25.8009,,25.8009,,0.7233,83.4580,,7.809,,2.7993E+02,,3.4216E-01,,10.8253,10.8278,0.1268,,,57.432,,,,,,,,,,,,
CalCOFI,2007SR,034,35,2007_034d,19-Jul-2020 14:48:14,19-Jul-2020 06:48:14,33.89010,-118.50214,086.7 033.0,086.7,033.0,49.000,49.358,,10.7713,,10.7717,,10.7715,33.7208,,33.7210,33.7219,,33.7235,33.7223,,,,,3.5806,,4.6068,3.1166,,,,,155.883,143.7925,134.0728,,0.0418,,0.0669,0.5432,-99.0,,-99.0,-99.0,25.8211,,25.8219,,0.7518,82.8652,,7.805,,2.7993E+02,,3.2572E-01,,10.7655,10.7658,0.1290,,,57.184,,,,,,,,,,,,